EST,Max TemperatureF,Mean TemperatureF,Min TemperatureF,Max Dew PointF,MeanDew PointF,Min DewpointF,Max Humidity, Mean Humidity, Min Humidity, Max Sea Level PressureIn, Mean Sea Level PressureIn, Min Sea Level PressureIn, Max VisibilityMiles, Mean VisibilityMiles, Min VisibilityMiles, Max Wind SpeedMPH, Mean Wind SpeedMPH, Max Gust SpeedMPH,PrecipitationIn, CloudCover, Events, WindDirDegrees
2013-11-1,69,62,55,59,49,41,90,65,40,29.62,29.38,29.21,10,10,8,20,9,37,0.12,6,Rain,206
2013-11-2,55,45,35,46,40,29,100,81,61,29.95,29.71,29.59,10,8,2,22,9,28,0.17,8,Rain,360
2013-11-3,38,33,28,26,17,12,70,53,35,30.49,30.26,29.98,10,10,10,18,10,23,0.00,2,,337
2013-11-4,37,30,23,22,17,14,88,66,44,30.72,30.66,30.55,10,10,10,13,4,18,0.00,0,,337
2013-11-5,48,36,24,31,26,20,89,64,39,30.62,30.52,30.39,10,10,10,18,5,24,0.00,0,,186
2013-11-6,57,44,30,45,38,29,92,76,59,30.39,30.12,29.78,10,10,10,23,9,32,T,2,Rain,166
2013-11-7,54,44,33,50,37,23,89,72,54,29.89,29.79,29.67,10,10,10,15,7,23,0.09,7,Rain,275
2013-11-8,42,37,32,27,24,21,75,62,48,30.11,29.95,29.85,10,10,10,18,6,32,0.00,6,,289
2013-11-9,43,34,25,31,24,19,81,60,39,30.20,30.09,29.90,10,10,10,15,5,23,T,4,Rain,197
2013-11-10,49,43,36,41,35,29,92,77,61,29.88,29.76,29.68,10,10,8,15,5,25,0.08,7,Rain,199
2013-11-11,43,37,31,34,27,18,70,61,51,30.11,29.96,29.82,10,10,9,22,8,32,0.03,7,Rain-Snow,243
2013-11-12,31,26,21,19,15,11,69,61,53,30.28,30.15,29.98,10,10,9,16,7,25,T,5,Snow,294
2013-11-13,35,25,15,22,14,8,80,58,35,30.35,30.23,30.00,10,10,10,15,5,25,0.00,3,,193
2013-11-14,45,36,26,31,26,21,92,71,49,30.03,30.01,29.97,10,10,10,15,6,26,0.00,3,,208
2013-11-15,52,40,27,30,27,24,92,64,35,30.16,30.08,30.02,10,10,10,15,3,21,0.00,0,,164
2013-11-16,53,41,28,33,29,26,92,65,38,30.27,30.22,30.15,10,10,10,7,1,9,0.00,2,,130
2013-11-17,58,43,28,52,43,26,92,82,71,30.20,29.96,29.61,10,10,7,24,11,32,0.07,5,Rain,168
2013-11-18,59,50,41,55,41,24,93,70,46,29.65,29.48,29.34,10,9,2,26,12,37,0.49,6,Rain,204
2013-11-19,41,34,27,27,18,15,66,57,47,30.40,30.05,29.68,10,9,2,23,10,32,T,7,Snow,302
2013-11-20,34,27,20,19,16,14,91,68,45,30.66,30.59,30.43,10,10,10,10,3,15,0.00,0,,309
2013-11-21,42,29,16,25,20,14,92,67,41,30.63,30.49,30.33,10,10,10,15,2,18,0.00,2,,157
2013-11-22,43,38,32,39,34,26,100,85,69,30.31,30.04,29.81,10,9,6,13,1,21,0.05,8,Rain-Snow,219
2013-11-23,40,30,20,29,21,10,79,63,47,30.00,29.88,29.79,10,8,0,20,8,30,0.02,6,Fog-Snow,303
2013-11-24,21,17,12,14,4,-3,61,51,41,30.29,30.06,29.90,10,9,2,25,11,41,T,3,Snow,301
2013-11-25,30,20,9,16,6,-2,69,53,36,30.40,30.26,30.12,10,10,10,21,8,29,0.00,2,,187
2013-11-26,36,33,30,32,26,14,96,73,49,30.21,30.12,29.95,10,6,2,15,8,20,0.05,8,Rain-Snow,169
2013-11-27,38,33,27,36,33,19,100,85,69,29.93,29.56,29.40,10,7,2,18,6,25,0.83,8,Rain-Snow,342
2013-11-28,27,20,12,17,9,5,84,63,42,30.44,30.07,29.62,10,10,10,16,6,25,0.00,2,,281
2013-11-29,25,17,9,13,8,5,84,67,50,30.79,30.63,30.45,10,10,10,9,2,10,0.00,2,,297
2013-11-30,29,17,5,15,9,2,88,67,46,30.80,30.61,30.28,10,9,2,21,8,29,T,3,Snow,177